Regional Weather Roundup
Issued by NWS

Home | Current Version | Previous Version | Text Only | Print | Product List | Glossary Off
Versions: 1 2 3 4 5 6 7 8 9 10 11 12 13 14 15 16 17 18 19 20 21 22 23 24 25 26 27 28 29 30 31 32 33 34 35 36 37 38 39 40 41 42 43 44 45 46 47 48 49 50

000
ASUS43 KIND 060859
RWRIN

WEATHER ROUNDUP FOR INDIANA
NATIONAL WEATHER SERVICE INDIANAPOLIS IN
400 AM EST FRI MAR 06 2015

NOTE: "FAIR" INDICATES FEW OR NO CLOUDS BELOW 12,000 FEET WITH NO
SIGNIFICANT WEATHER AND/OR OBSTRUCTIONS TO VISIBILITY.

* - STATION DOES NOT REPORT WEATHER SUCH AS PRECIPITATION OR FOG.

+ - STATION NOT QUALITY CONTROLLED BY THE NATIONAL WEATHER SERVICE.
    USE DATA WITH CAUTION...ESPECIALLY DEWPOINT AND RELATIVE
    HUMIDITY OBSERVATIONS.

INZ001>003-010>013-019-020-061000-
NORTHWEST INDIANA

CITY           SKY/WX    TMP DP  RH WIND       PRES   REMARKS
GARY /AIRPORT/ PTCLDY     6  -3  68 CALM      30.51F
KNOX *+          N/A      1  -9  60 S5        30.51S WCI  -8
MONTICELLO +   MOCLDY    -3  -7  84 CALM      30.53S
VALPARAISO     NOT AVBL

$$

LMZ046-743>745-061000-
SOUTHERN LAKE MICHIGAN

STATION/POSITION TIME  TEMP WIND        PRES
                       AIR  DIR/SP/G
                 (UTC) (F)  (DEG/KT/KT) (MB)
MICHIGAN CITY    0800    6  180/  9/  9   N/A

$$

INZ004-005-014>016-021>024-061000-
NORTH CENTRAL INDIANA

CITY           SKY/WX    TMP DP  RH WIND       PRES   REMARKS
GOSHEN         MOCLDY     1  -4  79 S6        30.48F WCI -10
SOUTH BEND     PTCLDY     1  -4  79 CALM      30.49F

$$

INZ006>009-017-018-025>027-061000-
NORTHEAST INDIANA

CITY           SKY/WX    TMP DP  RH WIND       PRES   REMARKS
ANGOLA *+      CLEAR     -4  -8  84 CALM      30.45F
FORT WAYNE     MOCLDY     0  -5  79 W6        30.51F WCI -12

$$

INZ028-029-035-036-043>045-051>053-061000-
WEST CENTRAL INDIANA

CITY           SKY/WX    TMP DP  RH WIND       PRES   REMARKS
CRAWFORDSVL +  PTCLDY    -6 -13  74 SW3       30.53S
GREENCASTLE +  PTCLDY     0  -6  78 CALM      30.54S
LAFAYETTE      MOCLDY    -4  -7  87 CALM      30.55F
TERRE HAUTE    MOCLDY    -4  -7  87 SE3       30.56F

$$

INZ030>032-037>040-046>048-054>057-064-065-061000-
CENTRAL INDIANA

CITY           SKY/WX    TMP DP  RH WIND       PRES   REMARKS
CP ATTERBURY + PTCLDY     3   1  92 CALM      30.56S
FRANKFORT +    MOCLDY    -9 -13  83 CALM      30.53F
GREENWOOD *+   FAIR       3  -2  78 CALM      30.53F
INDIANAPOLIS   PTCLDY     6  -2  69 CALM      30.52F
-EAGLE CREEK   PTCLDY     3  -1  83 CALM      30.52F
KOKOMO *+        N/A    N/A N/A N/A MISG        N/A
MT COMFORT *+  PTCLDY    -2 -11  65 CALM      30.53S
SHELBYVILLE    PTCLDY     3  -4  72 CALM      30.53F HAZE
ZIONSVILLE +   PTCLDY    -1  -6  80 CALM      30.52F

$$

INZ033-034-041-042-049-050-058-059-061000-
EAST CENTRAL INDIANA

CITY           SKY/WX    TMP DP  RH WIND       PRES   REMARKS
MUNCIE         MOCLDY     3  -2  79 W3        30.51F

$$

INZ060-061-067>069-081>083-085>088-061000-
SOUTHWEST INDIANA

CITY           SKY/WX    TMP DP  RH WIND       PRES   REMARKS
EVANSVILLE     PTCLDY     4  -2  76 CALM      30.59F
HUNTINGBURG *+ MOCLDY     3  -2  78 N5        30.57F WCI  -6

$$

INZ062-063-066-070>080-084-089>092-061000-
SOUTH CENTRAL AND SOUTHEAST INDIANA

CITY           SKY/WX    TMP DP  RH WIND       PRES   REMARKS
BLOOMINGTON    PTCLDY     1  -2  87 CALM      30.54S
SEYMOUR +      PTCLDY     5   0  78 NW3       30.56F HAZE

$$



USA.gov is the U.S. government's official web portal to all federal, state and local government web resources and services.